FW1524 Weather Reports


time (UTC)temp
C
wind
direction
speed
KPH
gust
KPH
rain 1hr
cm
rain 24hr
cm
rain mn
cm
humidity
%
barometer
mb
20260905231559 21 33 0.0 0.0 0.00 0.00 0.00 1 1011.5
20260905230100 22 33 0.0 0.0 0.00 0.00 0.00 1 1011.3
20260905224611 22 33 0.0 0.0 0.00 0.00 0.00 1 1011.2
20260905223151 22 33 0.0 0.0 0.00 0.00 0.00 1 1011.1
20260905221551 23 33 0.0 0.0 0.00 0.00 0.00 1 1010.9
20260905220051 23 34 0.0 0.0 0.00 0.00 0.00 1 1010.8
20260905214551 23 34 0.0 0.0 0.00 0.00 0.00 1 1010.6
20260905213150 23 16 0.0 0.0 0.00 0.00 0.00 1 1010.4
20260905211550 23 28 0.0 0.0 0.00 0.00 0.00 1 1010.5
20260905210053 23 284 0.0 0.0 0.00 0.00 0.00 1 1010.3
20260905204541 23 259 0.0 0.0 0.00 0.00 0.00 1 1010.2
20260905203138 23 355 0.0 0.0 0.00 0.00 0.00 10 1010.3
20260905201535 23 355 0.0 0.0 0.00 0.00 0.00 26 1010.3
20260905200033 23 9 0.0 0.0 0.00 0.00 0.00 27 1010.3
20260905194526 23 16 0.0 0.0 0.00 0.00 0.00 32 1010.3
20260905193123 23 67 0.0 0.0 0.00 0.00 0.00 32 1010.3
20260905191518 24 22 0.0 0.0 0.00 0.00 0.00 21 1010.3
20260905190012 24 15 0.0 0.0 0.00 0.00 0.00 27 1010.3
20260905184517 23 19 0.0 3.2 0.00 0.00 0.00 34 1010.3
20260905183103 24 19 0.0 0.0 0.00 0.00 0.00 32 1010.3
20260905181500 24 5 0.0 1.6 0.00 0.00 0.00 31 1010.4
20260905180104 23 64 0.0 0.0 0.00 0.00 0.00 33 1010.4
20260905174552 23 5 0.0 0.0 0.00 0.00 0.00 21 1010.4
20260905173105 23 55 0.0 0.0 0.00 0.00 0.00 24 1010.5
20260905171547 23 11 0.0 3.2 0.00 0.00 0.00 24 1010.8
20260905170045 23 92 0.0 1.6 0.00 0.00 0.00 5 1010.7
20260905164538 23 355 0.0 0.0 0.00 0.00 0.00 12 1010.8
20260905163033 23 360 0.0 0.0 0.00 0.00 0.00 1 1010.7
20260905161529 23 42 0.0 1.6 0.00 0.00 0.00 1 1010.9
20260905160023 22 37 0.0 1.6 0.00 0.00 0.00 1 1011.0
20260905154519 22 63 0.0 1.6 0.00 0.00 0.00 1 1011.0
20260905153019 21 55 0.0 1.6 0.00 0.00 0.00 1 1011.1
20260905151521 21 53 0.0 1.6 0.00 0.00 0.00 1 1011.2
20260905150013 21 20 0.0 6.4 0.00 0.00 0.00 1 1011.3
20260905144521 20 38 0.0 0.0 0.00 0.00 0.00 1 1011.1
20260905143006 18 105 0.0 0.0 0.00 0.00 0.00 1 1011.2
20260905141503 18 100 0.0 0.0 0.00 0.00 0.00 1 1011.2
20260905140059 18 53 0.0 0.0 0.00 0.00 0.00 1 1011.3
20260905134557 17 119 0.0 0.0 0.00 0.00 0.00 1 1011.2
20260905133050 17 142 0.0 0.0 0.00 0.00 0.00 1 1011.1
20260905131544 16 144 0.0 0.0 0.00 0.00 0.00 1 1011.1
20260905130040 16 148 0.0 0.0 0.00 0.00 0.00 1 1011.2
20260905124536 16 151 0.0 0.0 0.00 0.00 0.00 1 1011.6
20260905123032 15 151 0.0 0.0 0.00 0.00 0.00 1 1011.8
20260905121529 15 218 0.0 0.0 0.00 0.00 0.00 1 1011.8
20260905120024 15 218 0.0 0.0 0.00 0.00 0.00 1 1011.4
20260905114522 15 218 0.0 0.0 0.00 0.00 0.00 1 1011.1
20260905113017 15 218 0.0 0.0 0.00 0.00 0.00 1 1010.9
20260905111519 15 218 0.0 0.0 0.00 0.00 0.00 1 1011.0
20260905110012 15 218 0.0 0.0 0.00 0.00 0.00 1 1010.8
20260905104508 14 217 0.0 0.0 0.00 0.00 0.00 1 1010.4
20260905103006 14 218 0.0 0.0 0.00 0.00 0.00 1 1010.2
20260905101605 14 217 0.0 0.0 0.00 0.00 0.00 1 1010.2
20260905100120 15 217 0.0 0.0 0.00 0.00 0.00 1 1010.0
20260905094551 15 218 0.0 0.0 0.00 0.00 0.00 1 1009.8
20260905093045 15 218 0.0 0.0 0.00 0.00 0.00 1 1010.0
20260905091555 15 218 0.0 0.0 0.00 0.00 0.00 1 1009.9
20260905090040 15 218 0.0 0.0 0.00 0.00 0.00 1 1009.9
20260905084542 15 218 0.0 0.0 0.00 0.00 0.00 1 1009.9
20260905083038 15 218 0.0 0.0 0.00 0.00 0.00 1 1010.0
20260905081527 16 218 0.0 0.0 0.00 0.00 0.00 1 1010.1
20260905080024 16 218 0.0 0.0 0.00 0.00 0.00 1 1010.0
20260905074524 16 218 0.0 0.0 0.00 0.00 0.00 1 1010.0
20260905073015 16 218 0.0 0.0 0.00 0.00 0.00 1 1010.0
20260905071513 16 218 0.0 0.0 0.00 0.00 0.00 1 1010.1
20260905070009 17 218 0.0 0.0 0.00 0.00 0.00 1 1010.3
20260905064508 17 218 0.0 0.0 0.00 0.00 0.00 1 1010.3
20260905063101 17 218 0.0 0.0 0.00 0.00 0.00 1 1010.4
20260905061604 17 218 0.0 0.0 0.00 0.00 0.00 1 1010.5
20260905060051 17 218 0.0 0.0 0.00 0.00 0.00 1 1010.5
20260905054634 17 218 0.0 0.0 0.00 0.00 0.00 1 1010.6
20260905053046 18 218 0.0 0.0 0.00 0.00 0.00 1 1010.7
20260905051542 18 218 0.0 0.0 0.00 0.00 0.00 1 1010.7
20260905050038 18 232 0.0 0.0 0.00 0.00 0.00 1 1010.7
20260905044534 18 289 0.0 1.6 0.00 0.00 0.00 1 1010.9
20260905043030 18 196 0.0 0.0 0.00 0.94 0.00 1 1011.0
20260905041527 18 238 0.0 0.0 0.00 0.94 0.00 1 1010.9
20260905040023 18 232 0.0 0.0 0.00 0.94 0.00 1 1010.9
20260905034519 18 230 0.0 0.0 0.00 0.94 0.00 1 1010.8
20260905033017 18 249 0.0 0.0 0.00 0.94 0.00 1 1010.8
20260905031510 18 239 0.0 0.0 0.00 0.94 0.00 1 1010.8
20260905030010 19 326 0.0 0.0 0.00 0.94 0.00 1 1010.8
20260905024501 20 326 0.0 0.0 0.00 0.94 0.00 1 1010.8
20260905023057 20 326 0.0 0.0 0.00 0.94 0.00 1 1010.8
20260905021555 20 326 0.0 0.0 0.00 0.94 0.00 1 1010.8
20260905020055 20 326 0.0 0.0 0.00 0.94 0.00 1 1010.9
20260905014546 21 326 0.0 0.0 0.00 0.94 0.00 1 1011.0
20260905013042 21 326 0.0 0.0 0.00 0.94 0.00 1 1011.1
20260905011552 21 326 0.0 0.0 0.00 0.94 0.00 1 1011.0
20260905010058 21 277 0.0 0.0 0.00 0.94 0.00 1 1010.8
20260905004544 20 309 0.0 0.0 0.00 0.94 0.00 1 1010.8
20260905003041 20 242 0.0 0.0 0.00 0.94 0.00 1 1010.6
20260905001525 20 242 0.0 0.0 0.00 0.94 0.00 1 1010.5
20260905000031 20 242 0.0 0.0 0.00 0.94 0.00 1 1010.4
20260904234517 21 205 0.0 0.0 0.00 0.94 0.00 1 1010.3